Location: La Tine
(46.4708°N, 7.0525°E)
Time: 08:45:53
(UTC+00:00)

Meteor 1-24 Rocket - Pass Details

Date: 25 January 2021
Orbit: 790 x 927 km, 81.3° (Epoch: 24 February)

Event Time Altitude Azimuth Distance (km) Brightness Sun altitude
Rises 16:51:52 0° 196° (SSW) 3,297 7.4 -4.9°
Reaches altitude 10° 16:54:15 10° 198° (SSW) 2,361 6.7 -5.3°
Maximum altitude 16:59:33 71° 282° (WNW) 841 4.0 -6.1°
Drops below altitude 10° 17:04:52 10° 7° (N) 2,371 5.8 -7.0°
Sets 17:07:16 0° 10° (N) 3,312 6.5 -7.4°
